Flag Weather past 2 weeks in Lynchburg, Virginia, U.S.A.

Now
47 °F

Overcast.


Feels Like: 47 °F
Forecast: 41 / 50 °F
Wind: No wind

Location: Lynchburg Regional Airport

Current Time: Oct 31, 2014 at 8:40:24 PM

Latest Report: Oct 31, 2014 at 7:54 PM


Visibility: 10 mi

Pressure: 29.84 "Hg

Humidity: 83%

Dew point: 42 °F

Location of LynchburgLocation

Historic Weather in Lynchburg — Graph

°F

Lynchburg temperature yesterday

Maximum temperature yesterday: 60 °F (at 4:54 PM)
Minimum temperature yesterday: 37 °F (at 6:54 AM)
Average temperature yesterday: 48 °F

Past Weeks' High & Low Weather Summary

 TemperatureHumidityPressure
High81 °F (Oct 28, 2:54 PM)100% (Oct 20, 12:54 AM)30.14 "Hg (Oct 20, 12:54 AM)
Low35 °F (Oct 20, 5:54 AM)14% (Oct 26, 3:54 PM)29.71 "Hg (Oct 18, 3:54 AM)
Average54 °F67%29.96 "Hg
* Reported Oct 16 6:54 PM — Oct 31 6:54 PM, Lynchburg, Weather by CustomWeather, © 2014

Note: Actual official high and low records may vary slightly from our data, if they occured in-between our weather recording intervals... More about our weather records

Advertising

Lynchburg weather history for previous 24 hours

 ConditionsComfort  
Time TempWeatherWind HumidityBarometerVisibility
6:54 PM
Oct 31
47 °FPartly sunny.No wind77%29.84 "Hg10 mi
5:54 PM51 °FPassing clouds.3 mph61%29.83 "Hg10 mi
4:54 PM53 °FMostly cloudy.3 mph55%29.84 "Hg10 mi
3:54 PM56 °FMostly cloudy.N/A49%29.84 "Hg10 mi
2:54 PM53 °FOvercast.No wind52%29.86 "Hg10 mi
1:54 PM53 °FMostly cloudy.6 mph52%29.89 "Hg10 mi
12:54 PM52 °FOvercast.No wind50%29.92 "Hg10 mi
11:54 AM51 °FOvercast.No wind50%29.95 "Hg10 mi
10:54 AM50 °FOvercast.3 mph54%29.97 "Hg10 mi
9:54 AM48 °FSunny.5 mph63%29.98 "Hg10 mi
8:54 AM44 °FSunny.5 mph71%29.99 "Hg10 mi
7:54 AM40 °FOvercast.No wind83%29.99 "Hg10 mi
6:54 AM39 °FOvercast.No wind89%30.00 "Hg10 mi
5:54 AM36 °FMostly cloudy.No wind97%30.01 "Hg10 mi
4:54 AM36 °FClear.No wind92%30.01 "Hg10 mi
3:54 AM38 °FClear.3 mph90%30.02 "Hg10 mi
2:54 AM40 °FClear.5 mph83%30.02 "Hg10 mi
1:54 AM42 °FOvercast.5 mph76%30.03 "Hg10 mi
12:54 AM37 °FClear.3 mph93%30.04 "Hg10 mi
11:54 PM
Oct 30
40 °FClear.No wind83%30.05 "Hg10 mi
10:54 PM44 °FClear.3 mph71%30.05 "Hg10 mi
9:54 PM47 °FClear.8 mph64%30.03 "Hg10 mi
8:54 PM48 °FClear.8 mph63%30.04 "Hg10 mi
Weather by CustomWeather, © 2014

See weather overviewHow to use our weather pages